Other Surface Observations
Issued by NWS

Home | Current Version | Previous Version | Text Only | Print | Product List | Glossary On
Versions: 1 2 3 4 5 6 7 8 9 10 11 12 13 14 15 16 17 18 19 20 21 22 23 24 25 26 27 28 29 30 31 32 33 34 35 36 37 38 39 40 41 42 43 44 45 46 47 48 49 50
321
SXUS52 KTAE 121018
OSOTAE
OSOTAE
North Florida/South Alabama/Southwest Georgia Weather Roundup
National Weather Service Tallahassee Florida
500 AM EST TUE DEC 12 2017

Note: "fair" indicates few or no clouds below 12,000 feet with no
significant weather and/or obstructions to visibility.

!FLZ017-115-028-034-025-121100
...North Florida...

CITY           SKY/WX    TMP DP  RH WIND       PRES   REMARKS
TALLAHASSEE    PTCLDY    36  34  92 E5        29.99F WCI  32
APALACHICOLA   CLEAR     56  51  84 W7        30.01F
PERRY          CLEAR     40  39  97 CALM      30.01F
CROSS CITY     MOCLDY    38  37  99 CALM      30.08S
JACKSONVILLE   CLEAR     45  43  93 SW3       29.99F
$$

!FLZ112-006-005-002-011-121100
...Florida Panhandle...

CITY           SKY/WX    TMP DP  RH WIND       PRES   REMARKS
MARIANNA       CLEAR     50  45  83 SW7       29.97F
BONIFAY        NOT AVBL
PANAMA CITY NW FAIR      41  37  86 SW5       29.99F WCI  38
TYNDALL AFB    CLEAR     61  50  67 W15       30.00F
TYND DRONE APT FAIR      62  52  68 W6        30.01S
DE FUNIAK SPR  FAIR      46  44  91 SW3       29.99F
EGLIN AFB      CLEAR     53  42  68 W6        29.99F
DESTIN         CLEAR     61  46  57 W7        30.00F
HURLBURT       CLEAR     56  44  64 W6        29.99F
CRESTVIEW      CLEAR     49  44  83 W8        30.00F
PENSACOLA      CLEAR     53  45  74 W13       30.00F
$$

!ALZ063-066-121100
...South Alabama...

CITY           SKY/WX    TMP DP  RH WIND       PRES   REMARKS
DOTHAN         CLEAR     46  44  93 SW7       29.98F WCI  42
OZARK CAIRNS   CLEAR     41  40  93 S6        29.94F WCI  38
FT RUCKER HELI CLEAR     39  39 100 S3        29.95S
RUCKER HELI 3    N/A     46  44  91 W8        29.94F WCI  42
RUCKER HELI 2  FAIR      41  41 100 CALM      29.94F
FLORALA APT    CLEAR     47  43  86 SW6       29.99F WCI  44
ANDALUSIA      CLEAR     48  42  80 W6        29.96F
TROY           CLEAR     41  40  96 CALM      29.95F
EUFALA         FAIR      47  42  83 W5        29.92F WCI  45
MOBILE         CLEAR     48  42  80 W8        30.03F WCI  44
$$

!GAZ120>161-121100
...Southwest and South Central Georgia...

CITY           SKY/WX    TMP DP  RH WIND       PRES   REMARKS
THOMASVILLE    FAIR      39  39 100 CALM      29.99F
BAINBRIDGE     CLEAR     46  46 100 SW5       29.97F WCI  44
MOODY AFB      CLEAR     48  46  90 SW8       29.96F WCI  45
VALDOSTA       CLEAR     43  42  97 SW3       29.99F
MOULTRIE       CLEAR     45  43  93 SW3       29.98F
BLAKELY        NOT AVBL
ALBANY         CLEAR     43  41  93 SW5       29.97F WCI  40
TIFTON         FAIR      44  43  96 SW3       29.96F
FITZGERALD     FAIR      41  39  95 CALM      29.97F
CORDELE        FAIR      49  42  76 SW6       29.94F
AMERICUS       FAIR      41  34  75 SW5       29.94F WCI  38
HOMERVILLE     FAIR      43  43 100 SW3       29.98F
$$

!GMZ750-755-770-775-121100
...Coastal and Buoy Obs...

STATION/POSITION TIME  TEMP    WIND        PRES    VSBY  WAVE
                       AIR SEA DIR/SP/G                  HT/PER
                 (UTC) (F)     (DEG/KT/KT) (MB)    (MI)  (FT/S)
KEATON BEACH     1000   58     250/  7/  8 1015.9F
CEDAR KEY        1000   60     270/  4/  5 1017.1F
C TOWER          1000   66     280/ 19/ 21 1017.2F
APALACHICOLA BUO NOT AVBL
PANAMA CITY BUOY 0950   69 74  280/ 19/ 23 1017.1F         4/ 5
MOBILE BUOY      1000   66 74  270/ 23/ 27 1018.5
ORANGE BCH AL BU NOT AVBL
$$




USA.gov is the U.S. government's official web portal to all federal, state and local government web resources and services.